Zurück zum Katalog

STARLINK-34865

AktivKommunikationVLEO
NORAD 65200·PAYLOAD·🇺🇸 United States

Gestartet Aug 14, 2025 von Cape Canaveral Space Force Station

Loading…

Nächste Überflüge (nächste 24 Stunden)

TLE

AktuellSource: CelesTrak SupGP

Epoche: Sep 15, 2026, 04:08 UTC

1 65200C 25176C   26258.17270833  .00073390  00000+0  21676-2 0  2581
2 65200  53.1599 348.8754 0001313  82.9230 280.4384 15.34364673    10

Verfolge STARLINK-34865 in Echtzeit mit AllMySat

Download on the App Store